FNME

Details ICAO FNME (SPP)
Name MENONGUE
Region Angola
Timezone Africa/Luanda (UTC+1.0)
Plans Departing 0
Arriving 3
Stats Elevation 4,469 ft / 1,362 m (AMSL)
Location -14.657569° 17.719819°
Runways 1
Magnetic Variation 4.994° W
Sunrise 2018-05-25 05:06:45 UTC / 2018-05-25 06:06:45 Local
Sunset 2018-05-25 16:28:14 UTC / 2018-05-25 17:28:14 Local
Advertisement - Login to hide

Runways

ID Width Length Bearing (true) Bearing (mag) Surface Threshold Offset Overrun Length
13 147 ft / 45 m 11,456 ft / 3,492 m 118.26° 123.25° Asphalt 0 ft / 0 m 197 ft / 60 m
31 147 ft / 45 m 11,456 ft / 3,492 m 298.25° 303.24° Asphalt 0 ft / 0 m 197 ft / 60 m

Map

Weather


0- 5 10 15 20 25 30 35+ Temperature / ° C

Clouds and Precipitation
Forecast for 2018-05-25 12:00 UTC. Updated 4 hours ago

Ground ~20,000 ft ~40,000 ft Winds

METAR

Not found

TAF

TAF FNME 251045Z 2512/2524 12005KT 9999 BKN023 TEMPO 2520/2524 VRB03KT 9000 FEW015 BKN050

Frequencies

Tower 118.90 MHz AFIS
Warning: Do not use this data for real-world aviation or navigation. No guarantee of current accuracy is given.